TimeCDT,TemperatureF,Dew PointF,Humidity,Sea Level PressureIn,VisibilityMPH,Wind Direction,Wind SpeedMPH,Gust SpeedMPH,PrecipitationIn,Events,Conditions,WindDirDegrees,DateUTC
12:15 AM,41.5,39.0,91,30.21,10.0,North,4.6,-,N/A,,Clear,10,2013-04-05 05:15:00
12:35 AM,40.1,38.3,93,30.21,10.0,Calm,Calm,-,N/A,,Clear,0,2013-04-05 05:35:00
12:55 AM,40.1,38.3,93,30.20,10.0,Calm,Calm,-,N/A,,Clear,0,2013-04-05 05:55:00
1:15 AM,40.1,38.5,94,30.21,10.0,Calm,Calm,-,N/A,,Clear,0,2013-04-05 06:15:00
1:35 AM,37.8,36.5,95,30.21,10.0,NNW,3.5,-,N/A,,Clear,330,2013-04-05 06:35:00
1:55 AM,37.6,36.5,96,30.21,10.0,Calm,Calm,-,N/A,,Clear,0,2013-04-05 06:55:00
2:15 AM,37.6,36.5,96,30.22,10.0,Calm,Calm,-,N/A,,Clear,0,2013-04-05 07:15:00
2:35 AM,38.5,37.6,97,30.23,10.0,West,3.5,-,N/A,,Clear,280,2013-04-05 07:35:00
2:55 AM,40.1,38.8,95,30.22,10.0,NNW,4.6,-,N/A,,Clear,330,2013-04-05 07:55:00
3:15 AM,40.1,38.5,94,30.21,10.0,North,3.5,-,N/A,,Clear,350,2013-04-05 08:15:00
3:35 AM,40.1,38.5,94,30.21,10.0,North,4.6,-,N/A,,Clear,350,2013-04-05 08:35:00
3:55 AM,37.9,36.1,93,30.20,10.0,Calm,Calm,-,N/A,,Clear,0,2013-04-05 08:55:00
4:15 AM,38.8,37.6,95,30.20,10.0,North,3.5,-,N/A,,Clear,10,2013-04-05 09:15:00
4:35 AM,40.1,38.5,94,30.20,10.0,North,3.5,-,N/A,,Clear,10,2013-04-05 09:35:00
4:55 AM,40.1,38.5,94,30.20,10.0,Calm,Calm,-,N/A,,Clear,0,2013-04-05 09:55:00
5:15 AM,35.8,34.3,94,30.20,7.0,Calm,Calm,-,N/A,,Clear,0,2013-04-05 10:15:00
5:35 AM,35.1,33.8,95,30.20,7.0,Calm,Calm,-,N/A,,Clear,0,2013-04-05 10:35:00
5:55 AM,36.1,35.1,96,30.21,10.0,Calm,Calm,-,N/A,,Clear,0,2013-04-05 10:55:00
6:15 AM,35.4,34.5,97,30.21,7.0,Calm,Calm,-,N/A,,Clear,0,2013-04-05 11:15:00
6:35 AM,35.1,34.2,97,30.21,7.0,Calm,Calm,-,N/A,,Clear,0,2013-04-05 11:35:00
6:55 AM,35.1,34.0,96,30.21,7.0,Calm,Calm,-,N/A,,Clear,0,2013-04-05 11:55:00
7:15 AM,35.1,34.2,97,30.22,5.0,Calm,Calm,-,N/A,,Clear,0,2013-04-05 12:15:00
7:35 AM,35.1,34.2,97,30.22,10.0,Calm,Calm,-,N/A,,Clear,0,2013-04-05 12:35:00
7:55 AM,37.0,36.1,97,30.22,10.0,Calm,Calm,-,N/A,,Clear,0,2013-04-05 12:55:00
8:15 AM,40.1,39.2,97,30.24,10.0,West,3.5,-,N/A,,Clear,260,2013-04-05 13:15:00
8:35 AM,42.3,41.0,95,30.25,10.0,SW,4.6,-,N/A,,Clear,230,2013-04-05 13:35:00
8:55 AM,43.2,41.0,92,30.25,10.0,Calm,Calm,-,N/A,,Clear,0,2013-04-05 13:55:00
9:15 AM,44.4,40.8,87,30.26,10.0,Calm,Calm,-,N/A,,Clear,0,2013-04-05 14:15:00
9:35 AM,47.1,42.6,84,30.25,10.0,Calm,Calm,-,N/A,,Clear,0,2013-04-05 14:35:00
9:55 AM,50.4,44.2,80,30.25,10.0,Calm,Calm,-,N/A,,Clear,0,2013-04-05 14:55:00
10:15 AM,50.4,43.0,76,30.25,10.0,Calm,Calm,-,N/A,,Clear,0,2013-04-05 15:15:00
10:35 AM,51.8,42.8,71,30.25,10.0,Calm,Calm,-,N/A,,Clear,0,2013-04-05 15:35:00
10:55 AM,54.7,44.8,69,30.24,10.0,East,4.6,-,N/A,,Clear,100,2013-04-05 15:55:00
11:15 AM,55.4,44.2,66,30.24,10.0,SE,3.5,-,N/A,,Clear,140,2013-04-05 16:15:00
11:35 AM,55.4,43.9,65,30.23,10.0,SE,6.9,-,N/A,,Clear,130,2013-04-05 16:35:00
11:55 AM,58.1,45.7,63,30.23,10.0,ESE,4.6,-,N/A,,Clear,110,2013-04-05 16:55:00
12:15 PM,58.8,45.0,60,30.23,10.0,South,4.6,-,N/A,,Clear,170,2013-04-05 17:15:00
12:35 PM,59.9,45.3,59,30.22,10.0,SSE,4.6,-,N/A,,Clear,150,2013-04-05 17:35:00
12:55 PM,60.4,44.1,55,30.21,10.0,SE,4.6,-,N/A,,Clear,130,2013-04-05 17:55:00
1:15 PM,61.2,45.1,56,30.20,10.0,ESE,5.8,-,N/A,,Clear,110,2013-04-05 18:15:00
1:35 PM,61.7,44.6,53,30.19,10.0,SSE,3.5,-,N/A,,Clear,150,2013-04-05 18:35:00
1:55 PM,63.0,45.5,53,30.18,10.0,ESE,4.6,-,N/A,,Clear,120,2013-04-05 18:55:00
2:15 PM,63.5,45.3,52,30.17,10.0,SSE,3.5,-,N/A,,Clear,150,2013-04-05 19:15:00
2:35 PM,64.0,46.0,52,30.15,10.0,South,3.5,-,N/A,,Clear,190,2013-04-05 19:35:00
2:55 PM,65.1,46.8,51,30.14,10.0,Calm,Calm,-,N/A,,Clear,0,2013-04-05 19:55:00
3:15 PM,65.8,47.1,51,30.13,10.0,SSE,5.8,-,N/A,,Clear,150,2013-04-05 20:15:00
3:35 PM,68.0,48.0,49,30.12,10.0,SSE,3.5,-,N/A,,Clear,160,2013-04-05 20:35:00
3:55 PM,68.0,47.8,48,30.11,10.0,SE,6.9,-,N/A,,Clear,130,2013-04-05 20:55:00
4:15 PM,69.3,49.1,49,30.10,10.0,SE,4.6,-,N/A,,Clear,130,2013-04-05 21:15:00
4:35 PM,70.7,50.0,48,30.09,10.0,East,5.8,-,N/A,,Clear,100,2013-04-05 21:35:00
4:55 PM,70.7,50.4,48,30.08,10.0,SE,8.1,-,N/A,,Clear,130,2013-04-05 21:55:00
5:15 PM,70.7,49.8,48,30.07,10.0,ESE,6.9,-,N/A,,Clear,120,2013-04-05 22:15:00
5:35 PM,70.7,48.9,46,30.07,10.0,ESE,4.6,-,N/A,,Clear,120,2013-04-05 22:35:00
5:55 PM,70.7,48.9,46,30.06,10.0,ESE,10.4,-,N/A,,Clear,120,2013-04-05 22:55:00
6:15 PM,70.7,48.0,44,30.06,10.0,SE,5.8,-,N/A,,Clear,130,2013-04-05 23:15:00
6:35 PM,70.7,47.1,43,30.05,10.0,ESE,8.1,-,N/A,,Clear,120,2013-04-05 23:35:00
6:55 PM,68.0,46.6,46,30.04,10.0,SE,8.1,-,N/A,,Clear,140,2013-04-05 23:55:00
7:15 PM,68.9,47.8,47,30.04,10.0,ESE,5.8,-,N/A,,Clear,120,2013-04-06 00:15:00
7:35 PM,68.0,47.7,48,30.04,10.0,SE,5.8,-,N/A,,Clear,130,2013-04-06 00:35:00
7:55 PM,65.3,46.4,50,30.05,10.0,SE,5.8,-,N/A,,Clear,130,2013-04-06 00:55:00
8:15 PM,63.0,46.4,55,30.05,10.0,SE,8.1,-,N/A,,Clear,130,2013-04-06 01:15:00
8:35 PM,61.7,47.8,60,30.05,10.0,SE,8.1,-,N/A,,Clear,130,2013-04-06 01:35:00
8:55 PM,60.4,48.6,65,30.06,10.0,SE,6.9,-,N/A,,Clear,130,2013-04-06 01:55:00
9:15 PM,60.4,49.3,67,30.06,10.0,SE,6.9,-,N/A,,Clear,130,2013-04-06 02:15:00
9:35 PM,59.2,48.7,68,30.06,10.0,SE,5.8,-,N/A,,Clear,140,2013-04-06 02:35:00
9:55 PM,58.1,47.8,69,30.06,10.0,SSE,3.5,-,N/A,,Clear,160,2013-04-06 02:55:00
10:15 PM,58.1,48.7,71,30.06,10.0,SSE,5.8,-,N/A,,Clear,150,2013-04-06 03:15:00
10:35 PM,56.8,48.2,73,30.06,10.0,SSE,3.5,-,N/A,,Clear,150,2013-04-06 03:35:00
10:55 PM,56.7,48.2,73,30.05,10.0,SSE,5.8,-,N/A,,Clear,150,2013-04-06 03:55:00
11:15 PM,56.7,47.8,72,30.05,10.0,SSE,3.5,-,N/A,,Clear,150,2013-04-06 04:15:00
11:35 PM,55.4,47.1,74,30.04,10.0,Calm,Calm,-,N/A,,Clear,0,2013-04-06 04:35:00
11:55 PM,55.4,49.1,79,30.04,10.0,Calm,Calm,-,N/A,,Clear,0,2013-04-06 04:55:00